Tracking 29594 objects as of 20-Sep-2024
HD Live streaming from Space Station
objects crossing your sky now

DMSP 5D-2 F12 DEB

Track DMSP 5D-2 F12 DEB now!
10-day predictions


NORAD ID: 41835
Int'l Code: 1994-057F
Perigee: 807.1 km
Apogee: 831.7 km
Inclination: 98.9 °
Period: 101.1 minutes
Semi major axis: 7190 km
RCS: Unknown
Launch date: August 29, 1994
Source: United States (US)
Launch site: AIR FORCE WESTERN TEST RANGE (AFWTR)

Note: This is SATELLITE DEBRIS
Your satellite tracking list
Your tracking list is empty




NASA's NSSDC Master Catalog

Two Line Element Set (TLE):
1 41835U 94057F   24264.33374725  .00003434  00000-0  15168-2 0  9995
2 41835  98.9172 355.0896 0017099 282.9940  76.9329 14.23872937409549
Source of the keplerian elements: AFSPC